Weather in Chernigovskoye

Russia / Krasnodar Krai     44°15′04″N   39°45′56″E
temp.,
°C
wind,
m/s
gust,
m/s
humid.,
%
clouds,
%
prec.,
mm/h
press.,
hPa
HPBL,
m
16 april, fri
fri1600:00+7s327531 0.0 101934
03:00+7s227353 0.0 101824
06:00+7s227299 0.0 101819
09:00+12nnw2159100 0.0 1017366
12:00+14nnw235999 0.3 10181039
15:00+17se1551100 0.9 10171426
18:00+12n238928 0.8 1018311
21:00+9nnw119980 0.9 101987
17 april, sat
sat1700:00+9wnw1196100 0.3 101944
03:00+8w1199100 5.6 102053
06:00+8nnw12100100 7.8 1020149
09:00+7n1298100 19.8 1022167
12:00+7nne1197100 3.1 1023166
15:00+7ne1297100 5.4 1023233
18:00+7n1199100 0.2 1023100
21:00+7e009790 0.2 102239
18 april, sun
sun1800:00+7ese119699 0.0 102113
03:00+6se1196100 0.0 102028
06:00+7n0198100 0.1 101939
09:00+11nne1186100 0.1 1016258
12:00+10nw1194100 0.4 1017217
15:00+14sse138715 3.5 1016302
18:00+14ne119088 0.4 1016141
21:00+10s2293100 0.4 101731
19 april, mon
mon1900:00+11s2390100 0.0 101651
03:00+11s3487100 0.0 101554
06:00+12s3592100 0.7 101597
09:00+13sse2391100 1.3 101667
12:00+17ssw027964 0.0 1013218
15:00+23sw274297 0.1 10111854
18:00+18ne1179100 0.0 101029
21:00+14sse3370100 0.0 100750
20 april, tue
tue2000:00+19s5144779 0.0 1003573
03:00+20s41442100 0.0 999551
06:00+13sw1276100 0.0 100265
09:00+16wsw21070100 0.1 1005785
12:00+15wnw4578100 0.8 1007801
15:00+9sw41093100 8.0 1011718
18:00+9ssw4108680 4.1 1014984
21:00+7ssw48882 4.4 1017218